Hoonah, AK

5:10 AM AKDT on July 26, 2016 (GMT -0800)
Hoonah

Weather History for PAOH - February, 2013

Change the Weather History Date:

Monday, February 25, 2013

  Actual Average Record
Temperature  
Mean Temperature 34 °F -  
Max Temperature 37 °F 36 °F 44 °F (2004)
Min Temperature 32 °F 28 °F 6 °F (2011)
Degree Days  
Heating Degree Days 30    
Moisture  
Dew Point 33 °F    
Average Humidity 90    
Maximum Humidity 100    
Minimum Humidity 75    
Precipitation  
Precipitation 0.00 in - - ()
Sea Level Pressure  
Sea Level Pressure 29.90 in    
Wind  
Wind Speed 5 mph (East)    
Max Wind Speed 13 mph    
Max Gust Speed 22 mph    
Visibility 10 miles    
Events      
Averages and records for this station are not official NWS values.
T = Trace of Precipitation, MM = Missing Value Source: NWS Daily Summary

Daily Weather History Graph

Daily Weather History Graph

Search for Another Location

Airport or City:

Trip Planner

Search our weather history database for the weather conditions in past years. The results will help you decide how hot, cold, wet, or windy it might be!

Date:

Astronomy

Feb. 25, 2013 Rise Set
Actual Time 7:06 AM AKST 5:24 PM AKST
Civil Twilight 6:26 AM AKST 6:04 PM AKST
Nautical Twilight 5:40 AM AKST 6:49 PM AKST
Astronomical Twilight 4:55 AM AKST 7:35 PM AKST
Moon 6:01 PM AKST (2/25) 6:31 AM AKST (2/25)
Length of Visible Light 11h 37m
Length of Day
10h 18m
Full, 100% of the Moon is Illuminated
Feb 25
Full
Mar 4
Last Quarter
Mar 11
New
Mar 19
First Quarter
Mar 27
Full

Hourly Weather History & Observations

Time (AKST) Temp. Windchill Dew Point Humidity Pressure Visibility Wind Dir Wind Speed Gust Speed Precip Events Conditions
12:56 AM 32.0 °F - 32.0 °F 100% 29.86 in 10.0 mi Calm Calm - N/A   Mostly Cloudy
1:56 AM 32.0 °F - 32.0 °F 100% 29.86 in 10.0 mi Calm Calm - N/A   Clear
2:56 AM 33.8 °F 29.6 °F 33.8 °F 100% 29.86 in 10.0 mi East 4.6 mph - N/A   Clear
3:56 AM 32.0 °F 28.7 °F 32.0 °F 100% 29.88 in 10.0 mi ESE 3.5 mph - N/A   Partly Cloudy
4:56 AM 32.0 °F 28.7 °F 32.0 °F 100% 29.89 in 10.0 mi East 3.5 mph - N/A   Mostly Cloudy
5:56 AM 32.0 °F - 32.0 °F 100% 29.91 in 10.0 mi Calm Calm - N/A   Overcast
6:56 AM 32.9 °F 26.7 °F 32.9 °F 100% 29.91 in 10.0 mi East 6.9 mph - N/A   Overcast
7:56 AM 34.9 °F 29.9 °F 34.9 °F 100% 29.91 in 10.0 mi ESE 5.8 mph - 0.00 in   Overcast
8:56 AM 35.6 °F 29.9 °F 35.6 °F 100% 29.93 in 10.0 mi ENE 6.9 mph - N/A   Overcast
9:56 AM 36.9 °F 30.7 °F 34.9 °F 93% 29.94 in 10.0 mi East 8.1 mph - N/A   Overcast
10:56 AM 36.9 °F 29.6 °F 34.9 °F 93% 29.96 in 10.0 mi East 10.4 mph - N/A   Overcast
11:56 AM 37.9 °F 30.9 °F 34.0 °F 86% 29.97 in 10.0 mi East 10.4 mph - N/A   Overcast
12:56 PM 37.9 °F 30.9 °F 34.0 °F 86% 29.96 in 10.0 mi East 10.4 mph - N/A   Mostly Cloudy
1:56 PM 37.9 °F 30.9 °F 32.9 °F 82% 29.94 in 10.0 mi ENE 10.4 mph 19.6 mph N/A   Mostly Cloudy
2:56 PM 37.9 °F 32.1 °F 32.0 °F 79% 29.94 in 10.0 mi East 8.1 mph - N/A   Overcast
3:56 PM 37.9 °F 32.7 °F 32.9 °F 82% 29.94 in 10.0 mi East 6.9 mph - N/A   Overcast
4:56 PM 37.9 °F 30.5 °F 32.9 °F 82% 29.92 in 10.0 mi East 11.5 mph - N/A   Overcast
5:56 PM 36.9 °F 29.6 °F 32.0 °F 83% 29.90 in 10.0 mi East 10.4 mph - N/A   Overcast
6:56 PM 36.9 °F 30.7 °F 32.0 °F 83% 29.90 in 10.0 mi East 8.1 mph - N/A   Overcast
7:56 PM 36.9 °F 31.4 °F 32.0 °F 83% 29.88 in 10.0 mi East 6.9 mph - N/A   Overcast
8:56 PM 37.4 °F 30.3 °F 32.0 °F 81% 29.86 in 10.0 mi East 10.4 mph - N/A   Overcast
9:56 PM 36.9 °F 29.1 °F 31.1 °F 80% 29.85 in 10.0 mi East 11.5 mph - 0.00 in   Overcast
10:56 PM 36.9 °F 28.7 °F 31.1 °F 80% 29.82 in 10.0 mi ENE 12.7 mph 19.6 mph N/A   Mostly Cloudy
11:56 PM 37.4 °F 29.8 °F 30.2 °F 75% 29.81 in 9.0 mi East 11.5 mph 21.9 mph N/A   Overcast